Location: Chenereilles
(45.4866°N, 4.0790°E)
Time: 23:24:13
(UTC+00:00)

Cosmos 1862 - Pass Details

Date: 12 November 2019
Orbit: 538 x 557 km, 82.5° (Epoch: 11 December)

Event Time Altitude Azimuth Distance (km) Brightness Sun altitude
Rises 17:50:37 0° 357° (N) 2,706 6.8 -16.5°
Reaches altitude 10° 17:52:53 10° 5° (N) 1,810 5.8 -16.9°
Maximum altitude 17:56:39 41° 77° (ENE) 792 3.6 -17.5°
Enters shadow 17:57:12 39° 99° (E) 826 3.7 -17.6°
